| time (UTC) | temp F | wind direction | speed MPH | gust MPH | rain 1hr in | rain 24hr in | rain mn in | humidity % | barometer mb |
| 20260906214322 | 84 | 161 | 7.0 | 13.0 | 0.00 | 0.00 | 0.00 | 36 | 1021.0 |
| 20260906213822 | 84 | 165 | 7.0 | 10.0 | 0.00 | 0.00 | 0.00 | 37 | 1021.0 |
| 20260906213323 | 83 | 162 | 6.0 | 9.0 | 0.00 | 0.00 | 0.00 | 37 | 1021.0 |
| 20260906212822 | 83 | 156 | 5.0 | 9.0 | 0.00 | 0.00 | 0.00 | 37 | 1021.0 |
| 20260906212322 | 83 | 180 | 8.0 | 11.0 | 0.00 | 0.00 | 0.00 | 37 | 1022.0 |
| 20260906211822 | 83 | 155 | 8.0 | 10.0 | 0.00 | 0.00 | 0.00 | 38 | 1021.0 |
| 20260906211322 | 84 | 200 | 7.0 | 9.0 | 0.00 | 0.00 | 0.00 | 37 | 1022.0 |
| 20260906210822 | 84 | 167 | 9.0 | 11.0 | 0.00 | 0.00 | 0.00 | 35 | 1022.0 |
| 20260906210322 | 84 | 161 | 9.0 | 10.0 | 0.00 | 0.00 | 0.00 | 37 | 1022.0 |
| 20260906205822 | 84 | 168 | 8.0 | 11.0 | 0.00 | 0.00 | 0.00 | 37 | 1022.0 |
| 20260906205322 | 85 | 169 | 9.0 | 12.0 | 0.00 | 0.00 | 0.00 | 36 | 1022.0 |
| 20260906204822 | 84 | 137 | 6.0 | 9.0 | 0.00 | 0.00 | 0.00 | 36 | 1022.0 |
| 20260906204322 | 84 | 166 | 7.0 | 11.0 | 0.00 | 0.00 | 0.00 | 38 | 1022.0 |
| 20260906203823 | 84 | 178 | 7.0 | 10.0 | 0.00 | 0.00 | 0.00 | 37 | 1022.0 |
| 20260906203323 | 84 | 169 | 7.0 | 9.0 | 0.00 | 0.00 | 0.00 | 38 | 1022.0 |
| 20260906202822 | 85 | 131 | 6.0 | 9.0 | 0.00 | 0.00 | 0.00 | 35 | 1022.0 |
| 20260906202322 | 84 | 131 | 7.0 | 10.0 | 0.00 | 0.00 | 0.00 | 35 | 1022.0 |
| 20260906201823 | 84 | 178 | 7.0 | 10.0 | 0.00 | 0.00 | 0.00 | 35 | 1022.0 |
| 20260906201322 | 84 | 174 | 7.0 | 10.0 | 0.00 | 0.00 | 0.00 | 36 | 1022.0 |
| 20260906200822 | 84 | 156 | 6.0 | 9.0 | 0.00 | 0.00 | 0.00 | 35 | 1022.0 |
| 20260906200322 | 84 | 158 | 8.0 | 11.0 | 0.00 | 0.00 | 0.00 | 35 | 1022.0 |
| 20260906195823 | 84 | 166 | 5.0 | 9.0 | 0.00 | 0.00 | 0.00 | 35 | 1022.0 |
| 20260906195322 | 84 | 174 | 5.0 | 8.0 | 0.00 | 0.00 | 0.00 | 36 | 1022.0 |
| 20260906194822 | 84 | 143 | 6.0 | 9.0 | 0.00 | 0.00 | 0.00 | 35 | 1022.0 |
| 20260906194322 | 83 | 184 | 6.0 | 9.0 | 0.00 | 0.00 | 0.00 | 36 | 1022.0 |
| 20260906193822 | 84 | 192 | 8.0 | 10.0 | 0.00 | 0.00 | 0.00 | 36 | 1022.0 |
| 20260906193322 | 84 | 170 | 6.0 | 8.0 | 0.00 | 0.00 | 0.00 | 35 | 1022.0 |
| 20260906192822 | 83 | 148 | 9.0 | 12.0 | 0.00 | 0.00 | 0.00 | 36 | 1023.0 |
| 20260906192322 | 83 | 191 | 5.0 | 7.0 | 0.00 | 0.00 | 0.00 | 35 | 1023.0 |
| 20260906191823 | 83 | 187 | 4.0 | 5.0 | 0.00 | 0.00 | 0.00 | 35 | 1023.0 |
| 20260906191322 | 83 | 129 | 7.0 | 11.0 | 0.00 | 0.00 | 0.00 | 35 | 1023.0 |
| 20260906190822 | 83 | 152 | 9.0 | 15.0 | 0.00 | 0.00 | 0.00 | 36 | 1023.0 |
| 20260906190322 | 82 | 171 | 6.0 | 9.0 | 0.00 | 0.00 | 0.00 | 36 | 1023.0 |
| 20260906185824 | 82 | 165 | 5.0 | 7.0 | 0.00 | 0.00 | 0.00 | 37 | 1023.0 |
| 20260906185322 | 83 | 147 | 9.0 | 11.0 | 0.00 | 0.00 | 0.00 | 36 | 1023.0 |
| 20260906184822 | 83 | 159 | 7.0 | 9.0 | 0.00 | 0.00 | 0.00 | 36 | 1023.0 |
| 20260906184322 | 83 | 144 | 9.0 | 13.0 | 0.00 | 0.00 | 0.00 | 36 | 1023.0 |
| 20260906183822 | 83 | 151 | 4.0 | 9.0 | 0.00 | 0.00 | 0.00 | 35 | 1023.0 |
| 20260906183323 | 83 | 158 | 7.0 | 10.0 | 0.00 | 0.00 | 0.00 | 36 | 1023.0 |
| 20260906182822 | 83 | 99 | 5.0 | 9.0 | 0.00 | 0.00 | 0.00 | 35 | 1023.0 |
| 20260906182324 | 82 | 133 | 8.0 | 11.0 | 0.00 | 0.00 | 0.00 | 37 | 1023.0 |
| 20260906181822 | 82 | 153 | 8.0 | 10.0 | 0.00 | 0.00 | 0.00 | 36 | 1024.0 |
| 20260906181322 | 82 | 169 | 6.0 | 9.0 | 0.00 | 0.00 | 0.00 | 36 | 1024.0 |
| 20260906180824 | 82 | 163 | 7.0 | 10.0 | 0.00 | 0.00 | 0.00 | 35 | 1024.0 |
| 20260906180322 | 82 | 188 | 5.0 | 6.0 | 0.00 | 0.00 | 0.00 | 36 | 1024.0 |
| 20260906175822 | 82 | 201 | 5.0 | 8.0 | 0.00 | 0.00 | 0.00 | 36 | 1024.0 |
| 20260906175322 | 82 | 174 | 6.0 | 9.0 | 0.00 | 0.00 | 0.00 | 35 | 1024.0 |
| 20260906174822 | 82 | 143 | 8.0 | 11.0 | 0.00 | 0.00 | 0.00 | 35 | 1024.0 |
| 20260906174322 | 82 | 183 | 5.0 | 8.0 | 0.00 | 0.00 | 0.00 | 35 | 1024.0 |
| 20260906173824 | 82 | 123 | 5.0 | 7.0 | 0.00 | 0.00 | 0.00 | 34 | 1024.0 |
| 20260906173322 | 82 | 173 | 4.0 | 8.0 | 0.00 | 0.00 | 0.00 | 35 | 1024.0 |
| 20260906172822 | 82 | 105 | 4.0 | 7.0 | 0.00 | 0.00 | 0.00 | 34 | 1024.0 |
| 20260906172322 | 82 | 123 | 4.0 | 8.0 | 0.00 | 0.00 | 0.00 | 34 | 1024.0 |
| 20260906171822 | 82 | 131 | 4.0 | 8.0 | 0.00 | 0.00 | 0.00 | 35 | 1024.0 |
| 20260906171322 | 82 | 162 | 6.0 | 9.0 | 0.00 | 0.00 | 0.00 | 35 | 1024.0 |
| 20260906170822 | 82 | 146 | 7.0 | 10.0 | 0.00 | 0.00 | 0.00 | 34 | 1024.0 |
| 20260906170322 | 81 | 104 | 1.0 | 4.0 | 0.00 | 0.00 | 0.00 | 34 | 1024.0 |
| 20260906165822 | 80 | 140 | 2.0 | 4.0 | 0.00 | 0.00 | 0.00 | 34 | 1024.0 |
| 20260906165322 | 80 | 147 | 4.0 | 6.0 | 0.00 | 0.00 | 0.00 | 35 | 1024.0 |
| 20260906164822 | 80 | 157 | 5.0 | 9.0 | 0.00 | 0.00 | 0.00 | 35 | 1024.0 |
| 20260906164322 | 80 | 64 | 1.0 | 2.0 | 0.00 | 0.00 | 0.00 | 36 | 1024.0 |
| 20260906163822 | 80 | 271 | 2.0 | 3.0 | 0.00 | 0.00 | 0.00 | 36 | 1024.0 |
| 20260906163322 | 80 | 71 | 1.0 | 2.0 | 0.00 | 0.00 | 0.00 | 35 | 1024.0 |
| 20260906162822 | 79 | 99 | 2.0 | 4.0 | 0.00 | 0.00 | 0.00 | 36 | 1024.0 |
| 20260906162322 | 80 | 142 | 4.0 | 6.0 | 0.00 | 0.00 | 0.00 | 36 | 1025.0 |
| 20260906161822 | 80 | 139 | 3.0 | 4.0 | 0.00 | 0.00 | 0.00 | 36 | 1025.0 |
| 20260906161323 | 79 | 148 | 2.0 | 5.0 | 0.00 | 0.00 | 0.00 | 36 | 1025.0 |
| 20260906160822 | 79 | 154 | 3.0 | 5.0 | 0.00 | 0.00 | 0.00 | 36 | 1025.0 |
| 20260906160322 | 78 | 52 | 0.0 | 1.0 | 0.00 | 0.00 | 0.00 | 38 | 1025.0 |
| 20260906155822 | 78 | 37 | 2.0 | 3.0 | 0.00 | 0.00 | 0.00 | 38 | 1025.0 |
| 20260906155322 | 78 | 345 | 0.0 | 2.0 | 0.00 | 0.00 | 0.00 | 39 | 1025.0 |
| 20260906154822 | 77 | 51 | 1.0 | 2.0 | 0.00 | 0.00 | 0.00 | 39 | 1025.0 |
| 20260906154323 | 77 | 148 | 0.0 | 2.0 | 0.00 | 0.00 | 0.00 | 40 | 1025.0 |
| 20260906153823 | 76 | 157 | 0.0 | 2.0 | 0.00 | 0.00 | 0.00 | 40 | 1025.0 |
| 20260906153322 | 75 | 348 | 1.0 | 3.0 | 0.00 | 0.00 | 0.00 | 42 | 1025.0 |
| 20260906152822 | 75 | 354 | 2.0 | 4.0 | 0.00 | 0.00 | 0.00 | 43 | 1024.0 |
| 20260906152322 | 75 | 14 | 2.0 | 3.0 | 0.00 | 0.00 | 0.00 | 42 | 1025.0 |
| 20260906151822 | 74 | 17 | 1.0 | 3.0 | 0.00 | 0.00 | 0.00 | 43 | 1025.0 |
| 20260906151322 | 73 | 28 | 2.0 | 4.0 | 0.00 | 0.00 | 0.00 | 44 | 1025.0 |
| 20260906150822 | 73 | 353 | 3.0 | 6.0 | 0.00 | 0.00 | 0.00 | 45 | 1024.0 |
| 20260906150322 | 72 | 13 | 2.0 | 4.0 | 0.00 | 0.00 | 0.00 | 45 | 1024.0 |
| 20260906145822 | 72 | 339 | 3.0 | 4.0 | 0.00 | 0.00 | 0.00 | 45 | 1024.0 |
| 20260906145322 | 72 | 343 | 2.0 | 4.0 | 0.00 | 0.00 | 0.00 | 45 | 1024.0 |
| 20260906144822 | 71 | 328 | 1.0 | 2.0 | 0.00 | 0.00 | 0.00 | 46 | 1025.0 |
| 20260906144323 | 70 | 11 | 2.0 | 3.0 | 0.00 | 0.00 | 0.00 | 47 | 1025.0 |
| 20260906143822 | 70 | 5 | 2.0 | 5.0 | 0.00 | 0.00 | 0.00 | 48 | 1025.0 |
| 20260906143323 | 69 | 359 | 2.0 | 3.0 | 0.00 | 0.00 | 0.00 | 49 | 1024.0 |
| 20260906142822 | 69 | 328 | 3.0 | 5.0 | 0.00 | 0.00 | 0.00 | 50 | 1024.0 |
| 20260906142322 | 68 | 347 | 1.0 | 2.0 | 0.00 | 0.00 | 0.00 | 52 | 1024.0 |
| 20260906141822 | 67 | 14 | 1.0 | 4.0 | 0.00 | 0.00 | 0.00 | 51 | 1024.0 |
| 20260906141322 | 67 | 341 | 2.0 | 4.0 | 0.00 | 0.00 | 0.00 | 52 | 1024.0 |
| 20260906140823 | 66 | 7 | 1.0 | 3.0 | 0.00 | 0.00 | 0.00 | 53 | 1024.0 |
| 20260906140322 | 66 | 1 | 2.0 | 3.0 | 0.00 | 0.00 | 0.00 | 53 | 1024.0 |
| 20260906135822 | 65 | 15 | 2.0 | 3.0 | 0.00 | 0.00 | 0.00 | 53 | 1024.0 |
| 20260906135322 | 65 | 40 | 1.0 | 2.0 | 0.00 | 0.00 | 0.00 | 54 | 1024.0 |
| 20260906134822 | 64 | 12 | 1.0 | 2.0 | 0.00 | 0.00 | 0.00 | 54 | 1024.0 |
| 20260906134322 | 64 | 332 | 1.0 | 2.0 | 0.00 | 0.00 | 0.00 | 55 | 1024.0 |
| 20260906133822 | 64 | 355 | 1.0 | 2.0 | 0.00 | 0.00 | 0.00 | 56 | 1024.0 |
| 20260906133323 | 63 | 38 | 1.0 | 2.0 | 0.00 | 0.00 | 0.00 | 56 | 1024.0 |
| 20260906132822 | 62 | 307 | 3.0 | 4.0 | 0.00 | 0.00 | 0.00 | 55 | 1024.0 |
| 20260906132322 | 62 | 306 | 3.0 | 3.0 | 0.00 | 0.00 | 0.00 | 56 | 1024.0 |
| 20260906131822 | 61 | 311 | 3.0 | 4.0 | 0.00 | 0.00 | 0.00 | 57 | 1024.0 |
| 20260906131322 | 61 | 316 | 2.0 | 3.0 | 0.00 | 0.00 | 0.00 | 56 | 1024.0 |
| 20260906130822 | 61 | 340 | 1.0 | 2.0 | 0.00 | 0.00 | 0.00 | 57 | 1024.0 |
| 20260906130322 | 60 | 314 | 2.0 | 3.0 | 0.00 | 0.00 | 0.00 | 57 | 1024.0 |
| 20260906125822 | 60 | 313 | 2.0 | 3.0 | 0.00 | 0.00 | 0.00 | 57 | 1024.0 |
| 20260906125322 | 60 | 329 | 2.0 | 2.0 | 0.00 | 0.00 | 0.00 | 57 | 1024.0 |
| 20260906124823 | 60 | 356 | 1.0 | 2.0 | 0.00 | 0.00 | 0.00 | 57 | 1024.0 |
| 20260906124322 | 60 | 334 | 1.0 | 2.0 | 0.00 | 0.00 | 0.00 | 57 | 1024.0 |
| 20260906123822 | 60 | 331 | 1.0 | 2.0 | 0.00 | 0.00 | 0.00 | 57 | 1024.0 |
| 20260906123322 | 60 | 360 | 0.0 | 0.0 | 0.00 | 0.00 | 0.00 | 57 | 1024.0 |
| 20260906122822 | 60 | 47 | 0.0 | 0.0 | 0.00 | 0.00 | 0.00 | 56 | 1024.0 |
| 20260906122322 | 60 | 344 | 2.0 | 2.0 | 0.00 | 0.00 | 0.00 | 58 | 1024.0 |
| 20260906121822 | 60 | 295 | 3.0 | 4.0 | 0.00 | 0.00 | 0.00 | 58 | 1024.0 |
| 20260906121323 | 60 | 317 | 2.0 | 4.0 | 0.00 | 0.00 | 0.00 | 59 | 1024.0 |
| 20260906120823 | 60 | 316 | 3.0 | 5.0 | 0.00 | 0.00 | 0.00 | 58 | 1024.0 |
| 20260906120322 | 60 | 329 | 2.0 | 4.0 | 0.00 | 0.00 | 0.00 | 58 | 1024.0 |
| 20260906115822 | 59 | 319 | 3.0 | 4.0 | 0.00 | 0.00 | 0.00 | 60 | 1024.0 |
| 20260906115322 | 59 | 325 | 2.0 | 3.0 | 0.00 | 0.00 | 0.00 | 61 | 1024.0 |
| 20260906114822 | 58 | 323 | 1.0 | 2.0 | 0.00 | 0.00 | 0.00 | 64 | 1024.0 |
| 20260906114322 | 58 | 323 | 2.0 | 3.0 | 0.00 | 0.00 | 0.00 | 64 | 1024.0 |
| 20260906113822 | 58 | 42 | 0.0 | 1.0 | 0.00 | 0.00 | 0.00 | 63 | 1024.0 |
| 20260906113322 | 59 | 24 | 2.0 | 4.0 | 0.00 | 0.00 | 0.00 | 61 | 1024.0 |
| 20260906112822 | 59 | 314 | 1.0 | 2.0 | 0.00 | 0.00 | 0.00 | 62 | 1024.0 |
| 20260906112323 | 59 | 347 | 2.0 | 4.0 | 0.00 | 0.00 | 0.00 | 63 | 1024.0 |
| 20260906111822 | 59 | 356 | 4.0 | 5.0 | 0.00 | 0.00 | 0.00 | 61 | 1024.0 |
| 20260906111323 | 59 | 8 | 3.0 | 5.0 | 0.00 | 0.00 | 0.00 | 61 | 1024.0 |
| 20260906110822 | 59 | 351 | 2.0 | 2.0 | 0.00 | 0.00 | 0.00 | 62 | 1024.0 |
| 20260906110323 | 58 | 360 | 1.0 | 2.0 | 0.00 | 0.00 | 0.00 | 64 | 1024.0 |
| 20260906105823 | 59 | 324 | 1.0 | 2.0 | 0.00 | 0.00 | 0.00 | 65 | 1024.0 |
| 20260906105322 | 61 | 15 | 1.0 | 2.0 | 0.00 | 0.00 | 0.00 | 61 | 1024.0 |
| 20260906104822 | 61 | 7 | 2.0 | 4.0 | 0.00 | 0.00 | 0.00 | 59 | 1024.0 |
| 20260906104323 | 61 | 333 | 2.0 | 3.0 | 0.00 | 0.00 | 0.00 | 60 | 1024.0 |
| 20260906103823 | 61 | 354 | 2.0 | 3.0 | 0.00 | 0.00 | 0.00 | 60 | 1024.0 |
| 20260906103322 | 61 | 337 | 2.0 | 3.0 | 0.00 | 0.00 | 0.00 | 62 | 1024.0 |
| 20260906102822 | 60 | 351 | 2.0 | 3.0 | 0.00 | 0.00 | 0.00 | 62 | 1024.0 |
| 20260906102322 | 60 | 348 | 1.0 | 3.0 | 0.00 | 0.00 | 0.00 | 63 | 1024.0 |
| 20260906101822 | 60 | 311 | 3.0 | 4.0 | 0.00 | 0.00 | 0.00 | 65 | 1024.0 |
| 20260906101322 | 60 | 340 | 1.0 | 2.0 | 0.00 | 0.00 | 0.00 | 65 | 1024.0 |
| 20260906100822 | 60 | 352 | 2.0 | 3.0 | 0.00 | 0.00 | 0.00 | 64 | 1024.0 |
| 20260906100322 | 61 | 2 | 3.0 | 4.0 | 0.00 | 0.00 | 0.00 | 63 | 1024.0 |
| 20260906095823 | 61 | 21 | 1.0 | 2.0 | 0.00 | 0.00 | 0.00 | 63 | 1024.0 |
| 20260906095322 | 62 | 20 | 1.0 | 3.0 | 0.00 | 0.00 | 0.00 | 62 | 1024.0 |
| 20260906094822 | 62 | 16 | 2.0 | 3.0 | 0.00 | 0.00 | 0.00 | 61 | 1024.0 |
| 20260906094322 | 62 | 333 | 2.0 | 2.0 | 0.00 | 0.00 | 0.00 | 62 | 1024.0 |
| 20260906093822 | 61 | 348 | 1.0 | 2.0 | 0.00 | 0.00 | 0.00 | 64 | 1024.0 |
| 20260906093323 | 62 | 355 | 2.0 | 3.0 | 0.00 | 0.00 | 0.00 | 65 | 1024.0 |
| 20260906092822 | 63 | 350 | 2.0 | 3.0 | 0.00 | 0.00 | 0.00 | 62 | 1024.0 |
| 20260906092322 | 63 | 21 | 1.0 | 2.0 | 0.00 | 0.00 | 0.00 | 60 | 1024.0 |
| 20260906091822 | 63 | 314 | 1.0 | 2.0 | 0.00 | 0.00 | 0.00 | 59 | 1024.0 |
| 20260906091324 | 63 | 32 | 1.0 | 1.0 | 0.00 | 0.00 | 0.00 | 59 | 1024.0 |
| 20260906090822 | 63 | 311 | 2.0 | 4.0 | 0.00 | 0.00 | 0.00 | 59 | 1024.0 |
| 20260906090322 | 62 | 318 | 2.0 | 4.0 | 0.00 | 0.00 | 0.00 | 64 | 1024.0 |
| 20260906085822 | 62 | 307 | 2.0 | 4.0 | 0.00 | 0.00 | 0.00 | 66 | 1024.0 |
| 20260906085322 | 62 | 324 | 1.0 | 3.0 | 0.00 | 0.00 | 0.00 | 67 | 1024.0 |
| 20260906084822 | 62 | 343 | 1.0 | 2.0 | 0.00 | 0.00 | 0.00 | 67 | 1024.0 |
| 20260906084323 | 61 | 341 | 1.0 | 3.0 | 0.00 | 0.00 | 0.00 | 68 | 1024.0 |
| 20260906083822 | 61 | 360 | 1.0 | 3.0 | 0.00 | 0.00 | 0.00 | 71 | 1024.0 |
| 20260906083322 | 61 | 7 | 2.0 | 3.0 | 0.00 | 0.00 | 0.00 | 71 | 1024.0 |
| 20260906082822 | 61 | 4 | 2.0 | 4.0 | 0.00 | 0.00 | 0.00 | 70 | 1024.0 |
| 20260906082322 | 62 | 353 | 3.0 | 5.0 | 0.00 | 0.00 | 0.00 | 69 | 1024.0 |
| 20260906081822 | 62 | 350 | 2.0 | 3.0 | 0.00 | 0.00 | 0.00 | 69 | 1024.0 |
| 20260906081322 | 62 | 28 | 2.0 | 5.0 | 0.00 | 0.00 | 0.00 | 69 | 1024.0 |
| 20260906080822 | 62 | 39 | 2.0 | 2.0 | 0.00 | 0.00 | 0.00 | 70 | 1024.0 |
| 20260906080323 | 62 | 12 | 2.0 | 3.0 | 0.00 | 0.00 | 0.00 | 71 | 1024.0 |
| 20260906075822 | 62 | 15 | 2.0 | 3.0 | 0.00 | 0.00 | 0.00 | 70 | 1024.0 |
| 20260906075322 | 63 | 359 | 0.0 | 1.0 | 0.00 | 0.00 | 0.00 | 69 | 1024.0 |
| 20260906074823 | 63 | 33 | 1.0 | 2.0 | 0.00 | 0.00 | 0.00 | 69 | 1024.0 |
| 20260906074322 | 63 | 335 | 2.0 | 2.0 | 0.00 | 0.00 | 0.00 | 69 | 1024.0 |
| 20260906073822 | 63 | 348 | 2.0 | 3.0 | 0.00 | 0.00 | 0.00 | 70 | 1024.0 |
| 20260906073322 | 63 | 331 | 3.0 | 4.0 | 0.00 | 0.00 | 0.00 | 71 | 1024.0 |
| 20260906072822 | 63 | 334 | 2.0 | 3.0 | 0.00 | 0.00 | 0.00 | 70 | 1024.0 |
| 20260906072322 | 63 | 348 | 1.0 | 3.0 | 0.00 | 0.00 | 0.00 | 69 | 1024.0 |
| 20260906071822 | 64 | 343 | 2.0 | 3.0 | 0.00 | 0.00 | 0.00 | 68 | 1024.0 |
| 20260906071322 | 64 | 284 | 2.0 | 3.0 | 0.00 | 0.00 | 0.00 | 68 | 1024.0 |
| 20260906070822 | 64 | 276 | 2.0 | 4.0 | 0.00 | 0.00 | 0.00 | 66 | 1024.0 |
| 20260906070322 | 63 | 290 | 2.0 | 3.0 | 0.00 | 0.00 | 0.00 | 68 | 1024.0 |
| 20260906065822 | 62 | 267 | 1.0 | 2.0 | 0.00 | 0.00 | 0.00 | 71 | 1024.0 |
| 20260906065324 | 62 | 278 | 3.0 | 5.0 | 0.00 | 0.00 | 0.00 | 73 | 1024.0 |
| 20260906064823 | 63 | 280 | 4.0 | 5.0 | 0.00 | 0.00 | 0.00 | 72 | 1024.0 |
| 20260906064322 | 63 | 295 | 0.0 | 1.0 | 0.00 | 0.00 | 0.00 | 72 | 1024.0 |
| 20260906063822 | 63 | 41 | 0.0 | 1.0 | 0.00 | 0.00 | 0.00 | 71 | 1024.0 |
| 20260906063322 | 62 | 244 | 1.0 | 2.0 | 0.00 | 0.00 | 0.00 | 70 | 1024.0 |
| 20260906062822 | 62 | 271 | 2.0 | 3.0 | 0.00 | 0.00 | 0.00 | 71 | 1024.0 |
| 20260906062322 | 62 | 308 | 1.0 | 2.0 | 0.00 | 0.00 | 0.00 | 72 | 1024.0 |
| 20260906061822 | 62 | 184 | 0.0 | 2.0 | 0.00 | 0.00 | 0.00 | 72 | 1024.0 |
| 20260906061322 | 62 | 282 | 2.0 | 2.0 | 0.00 | 0.00 | 0.00 | 70 | 1024.0 |
| 20260906060822 | 62 | 115 | 0.0 | 1.0 | 0.00 | 0.00 | 0.00 | 70 | 1024.0 |
| 20260906060322 | 62 | 340 | 3.0 | 4.0 | 0.00 | 0.00 | 0.00 | 71 | 1024.0 |
| 20260906055822 | 61 | 350 | 1.0 | 2.0 | 0.00 | 0.00 | 0.02 | 71 | 1024.0 |
| 20260906055322 | 61 | 346 | 2.0 | 4.0 | 0.00 | 0.00 | 0.02 | 71 | 1024.0 |
| 20260906054822 | 61 | 328 | 2.0 | 4.0 | 0.00 | 0.00 | 0.02 | 71 | 1024.0 |
| 20260906054323 | 61 | 357 | 3.0 | 4.0 | 0.00 | 0.00 | 0.02 | 70 | 1024.0 |
| 20260906053822 | 61 | 359 | 2.0 | 4.0 | 0.00 | 0.00 | 0.02 | 69 | 1024.0 |
| 20260906053322 | 61 | 3 | 2.0 | 4.0 | 0.00 | 0.00 | 0.02 | 69 | 1024.0 |
| 20260906052822 | 61 | 5 | 2.0 | 4.0 | 0.00 | 0.00 | 0.02 | 70 | 1024.0 |
| 20260906052322 | 61 | 344 | 0.0 | 2.0 | 0.00 | 0.00 | 0.02 | 69 | 1024.0 |
| 20260906051822 | 62 | 5 | 1.0 | 2.0 | 0.00 | 0.00 | 0.02 | 68 | 1024.0 |
| 20260906051323 | 62 | 24 | 2.0 | 2.0 | 0.00 | 0.00 | 0.02 | 68 | 1024.0 |
| 20260906050822 | 63 | 25 | 1.0 | 2.0 | 0.00 | 0.00 | 0.02 | 69 | 1024.0 |
| 20260906050322 | 63 | 350 | 2.0 | 3.0 | 0.00 | 0.00 | 0.02 | 67 | 1024.0 |
| 20260906045822 | 63 | 359 | 2.0 | 2.0 | 0.00 | 0.00 | 0.02 | 66 | 1024.0 |
| 20260906045322 | 63 | 58 | 0.0 | 1.0 | 0.00 | 0.00 | 0.02 | 67 | 1024.0 |
| 20260906044822 | 64 | 289 | 1.0 | 2.0 | 0.00 | 0.00 | 0.02 | 66 | 1024.0 |
| 20260906044322 | 64 | 355 | 0.0 | 1.0 | 0.00 | 0.00 | 0.02 | 67 | 1024.0 |
| 20260906043822 | 64 | 301 | 0.0 | 2.0 | 0.00 | 0.00 | 0.02 | 68 | 1024.0 |
| 20260906043322 | 64 | 290 | 3.0 | 3.0 | 0.00 | 0.00 | 0.02 | 67 | 1024.0 |
| 20260906042822 | 65 | 298 | 2.0 | 3.0 | 0.00 | 0.00 | 0.02 | 66 | 1024.0 |
| 20260906042322 | 64 | 305 | 1.0 | 2.0 | 0.00 | 0.00 | 0.02 | 65 | 1024.0 |
| 20260906041822 | 64 | 293 | 2.0 | 2.0 | 0.00 | 0.00 | 0.02 | 63 | 1024.0 |
| 20260906041322 | 65 | 312 | 2.0 | 3.0 | 0.00 | 0.00 | 0.02 | 60 | 1024.0 |
| 20260906040822 | 65 | 339 | 1.0 | 2.0 | 0.00 | 0.00 | 0.02 | 60 | 1024.0 |
| 20260906040322 | 65 | 300 | 1.0 | 2.0 | 0.00 | 0.00 | 0.02 | 60 | 1024.0 |
| 20260906035822 | 66 | 319 | 1.0 | 2.0 | 0.00 | 0.00 | 0.02 | 63 | 1024.0 |
| 20260906035322 | 66 | 287 | 4.0 | 5.0 | 0.00 | 0.00 | 0.02 | 62 | 1024.0 |
| 20260906034822 | 66 | 289 | 3.0 | 4.0 | 0.00 | 0.00 | 0.02 | 62 | 1024.0 |
| 20260906034322 | 66 | 291 | 3.0 | 5.0 | 0.00 | 0.00 | 0.02 | 62 | 1024.0 |
| 20260906033822 | 66 | 296 | 4.0 | 5.0 | 0.00 | 0.00 | 0.02 | 61 | 1024.0 |
| 20260906033324 | 66 | 290 | 4.0 | 5.0 | 0.00 | 0.00 | 0.02 | 59 | 1024.0 |
| 20260906032823 | 66 | 291 | 4.0 | 5.0 | 0.00 | 0.00 | 0.02 | 57 | 1024.0 |
| 20260906032322 | 66 | 286 | 3.0 | 5.0 | 0.00 | 0.00 | 0.02 | 56 | 1024.0 |
| 20260906031822 | 67 | 291 | 3.0 | 5.0 | 0.00 | 0.00 | 0.02 | 54 | 1024.0 |
| 20260906031322 | 67 | 297 | 3.0 | 6.0 | 0.00 | 0.00 | 0.02 | 54 | 1024.0 |
| 20260906030822 | 67 | 295 | 3.0 | 4.0 | 0.00 | 0.00 | 0.02 | 54 | 1024.0 |
| 20260906030322 | 67 | 291 | 4.0 | 6.0 | 0.00 | 0.00 | 0.02 | 51 | 1024.0 |
| 20260906025822 | 68 | 292 | 5.0 | 7.0 | 0.00 | 0.00 | 0.02 | 54 | 1024.0 |
| 20260906025324 | 68 | 254 | 3.0 | 6.0 | 0.00 | 0.00 | 0.02 | 51 | 1024.0 |
| 20260906024822 | 69 | 242 | 2.0 | 3.0 | 0.00 | 0.00 | 0.02 | 50 | 1024.0 |
| 20260906024322 | 69 | 191 | 3.0 | 4.0 | 0.00 | 0.00 | 0.02 | 50 | 1024.0 |
| 20260906023822 | 67 | 176 | 2.0 | 4.0 | 0.00 | 0.00 | 0.02 | 48 | 1024.0 |
| 20260906023322 | 67 | 144 | 3.0 | 5.0 | 0.00 | 0.00 | 0.02 | 53 | 1024.0 |
| 20260906022822 | 67 | 61 | 1.0 | 3.0 | 0.00 | 0.00 | 0.02 | 50 | 1023.0 |
| 20260906022322 | 68 | 308 | 0.0 | 1.0 | 0.00 | 0.00 | 0.02 | 49 | 1023.0 |
| 20260906021822 | 68 | 339 | 3.0 | 4.0 | 0.00 | 0.00 | 0.02 | 48 | 1023.0 |
| 20260906021322 | 68 | 334 | 3.0 | 4.0 | 0.00 | 0.00 | 0.02 | 50 | 1023.0 |
| 20260906020822 | 69 | 329 | 2.0 | 3.0 | 0.00 | 0.00 | 0.02 | 49 | 1023.0 |
| 20260906020322 | 69 | 326 | 2.0 | 2.0 | 0.00 | 0.00 | 0.02 | 47 | 1023.0 |
| 20260906015822 | 69 | 331 | 3.0 | 4.0 | 0.00 | 0.00 | 0.02 | 48 | 1023.0 |
| 20260906015322 | 69 | 294 | 4.0 | 6.0 | 0.00 | 0.00 | 0.02 | 47 | 1023.0 |
| 20260906014822 | 70 | 291 | 4.0 | 5.0 | 0.00 | 0.00 | 0.02 | 47 | 1023.0 |
| 20260906014322 | 70 | 299 | 4.0 | 5.0 | 0.00 | 0.00 | 0.02 | 47 | 1023.0 |
| 20260906013822 | 71 | 291 | 5.0 | 6.0 | 0.00 | 0.00 | 0.02 | 49 | 1023.0 |
| 20260906013323 | 72 | 290 | 5.0 | 7.0 | 0.00 | 0.00 | 0.02 | 47 | 1022.0 |
| 20260906012822 | 73 | 284 | 4.0 | 6.0 | 0.00 | 0.00 | 0.02 | 45 | 1022.0 |
| 20260906012322 | 75 | 298 | 2.0 | 4.0 | 0.00 | 0.00 | 0.02 | 42 | 1022.0 |
| 20260906011822 | 77 | 282 | 1.0 | 2.0 | 0.00 | 0.00 | 0.02 | 41 | 1022.0 |
| 20260906011322 | 78 | 346 | 1.0 | 1.0 | 0.00 | 0.00 | 0.02 | 35 | 1022.0 |
| 20260906010822 | 79 | 295 | 0.0 | 2.0 | 0.00 | 0.00 | 0.02 | 35 | 1022.0 |
| 20260906010322 | 80 | 266 | 1.0 | 2.0 | 0.00 | 0.00 | 0.02 | 35 | 1023.0 |
| 20260906005823 | 80 | 280 | 0.0 | 1.0 | 0.00 | 0.00 | 0.02 | 34 | 1023.0 |
| 20260906005323 | 81 | 60 | 1.0 | 2.0 | 0.00 | 0.00 | 0.02 | 34 | 1023.0 |
| 20260906004822 | 81 | 49 | 1.0 | 2.0 | 0.00 | 0.00 | 0.02 | 32 | 1023.0 |
| 20260906004322 | 81 | 228 | 1.0 | 2.0 | 0.00 | 0.00 | 0.02 | 33 | 1023.0 |
| 20260906003824 | 81 | 229 | 2.0 | 3.0 | 0.00 | 0.00 | 0.02 | 33 | 1023.0 |
| 20260906003322 | 81 | 351 | 1.0 | 2.0 | 0.00 | 0.00 | 0.02 | 32 | 1023.0 |
| 20260906002822 | 80 | 297 | 2.0 | 3.0 | 0.00 | 0.00 | 0.02 | 33 | 1023.0 |
| 20260906002322 | 79 | 309 | 1.0 | 2.0 | 0.00 | 0.00 | 0.02 | 34 | 1023.0 |
| 20260906001823 | 78 | 336 | 2.0 | 4.0 | 0.00 | 0.00 | 0.02 | 34 | 1023.0 |
| 20260906001323 | 78 | 323 | 1.0 | 2.0 | 0.00 | 0.00 | 0.02 | 38 | 1023.0 |
| 20260906000822 | 78 | 345 | 2.0 | 3.0 | 0.00 | 0.00 | 0.02 | 35 | 1023.0 |
| 20260906000322 | 78 | 337 | 1.0 | 2.0 | 0.00 | 0.00 | 0.02 | 36 | 1023.0 |
| 20260905235822 | 78 | 312 | 1.0 | 2.0 | 0.00 | 0.00 | 0.02 | 36 | 1023.0 |
| 20260905235322 | 78 | 285 | 2.0 | 2.0 | 0.00 | 0.00 | 0.02 | 43 | 1023.0 |
| 20260905234823 | 78 | 297 | 2.0 | 3.0 | 0.00 | 0.00 | 0.02 | 38 | 1023.0 |
| 20260905234322 | 78 | 301 | 3.0 | 4.0 | 0.00 | 0.00 | 0.02 | 39 | 1023.0 |
| 20260905233822 | 78 | 297 | 2.0 | 4.0 | 0.00 | 0.00 | 0.02 | 37 | 1023.0 |
| 20260905233322 | 78 | 276 | 2.0 | 3.0 | 0.00 | 0.00 | 0.02 | 37 | 1023.0 |
| 20260905232823 | 78 | 280 | 2.0 | 2.0 | 0.00 | 0.00 | 0.02 | 35 | 1023.0 |
| 20260905232321 | 79 | 249 | 1.0 | 2.0 | 0.00 | 0.00 | 0.02 | 35 | 1023.0 |
| 20260905231823 | 79 | 275 | 2.0 | 3.0 | 0.00 | 0.00 | 0.02 | 35 | 1023.0 |
| 20260905231322 | 80 | 290 | 2.0 | 3.0 | 0.00 | 0.00 | 0.02 | 34 | 1023.0 |
| 20260905230822 | 80 | 293 | 2.0 | 4.0 | 0.00 | 0.00 | 0.02 | 34 | 1023.0 |
| 20260905230323 | 79 | 289 | 2.0 | 3.0 | 0.00 | 0.00 | 0.02 | 34 | 1023.0 |
| 20260905225822 | 79 | 270 | 2.0 | 3.0 | 0.00 | 0.00 | 0.02 | 36 | 1023.0 |
| 20260905225322 | 79 | 232 | 3.0 | 4.0 | 0.00 | 0.00 | 0.02 | 35 | 1023.0 |
| 20260905224822 | 79 | 239 | 3.0 | 4.0 | 0.00 | 0.00 | 0.02 | 36 | 1023.0 |
| 20260905224322 | 79 | 281 | 3.0 | 4.0 | 0.00 | 0.00 | 0.02 | 35 | 1023.0 |
| 20260905223822 | 79 | 329 | 2.0 | 3.0 | 0.00 | 0.00 | 0.02 | 33 | 1023.0 |
| 20260905223322 | 79 | 336 | 1.0 | 2.0 | 0.00 | 0.00 | 0.02 | 33 | 1023.0 |
| 20260905222822 | 79 | 306 | 2.0 | 4.0 | 0.00 | 0.00 | 0.02 | 33 | 1023.0 |
| 20260905222322 | 79 | 1 | 1.0 | 2.0 | 0.00 | 0.00 | 0.02 | 32 | 1023.0 |
| 20260905221824 | 79 | 247 | 2.0 | 4.0 | 0.00 | 0.00 | 0.02 | 33 | 1023.0 |
| 20260905221322 | 79 | 221 | 2.0 | 4.0 | 0.00 | 0.00 | 0.02 | 34 | 1023.0 |
| 20260905220822 | 79 | 146 | 4.0 | 6.0 | 0.00 | 0.00 | 0.02 | 32 | 1023.0 |
| 20260905220323 | 79 | 161 | 2.0 | 2.0 | 0.00 | 0.00 | 0.02 | 34 | 1023.0 |
| 20260905215822 | 79 | 216 | 4.0 | 7.0 | 0.00 | 0.00 | 0.02 | 34 | 1023.0 |
| 20260905215322 | 79 | 235 | 4.0 | 6.0 | 0.00 | 0.00 | 0.02 | 33 | 1023.0 |
| 20260905214822 | 79 | 162 | 4.0 | 6.0 | 0.00 | 0.00 | 0.02 | 35 | 1023.0 |